ONEWEB-0081, 45429

Orbit data source: Space-Track

ONEWEB-0081, 45429 is a payload satellite owned by One Web (UK) in LEO that was launched on Sat, 21 Mar 2020 UTC via a SOYUZ-2-1B launch vehicle from the Tyuratam Missile And Space Complex (TTMTR). Payload-class satellites include a variety of spacecraft equipped with specific instruments for various scientific and technological missions. These include communications satellites like Starlink; space stations such as the ISS; scientific satellites like the Hubble; Earth observation satellites from companies like Planet Labs, Umbra, and HawkEye 360; GPS; miniature CubeSats for education and research; and military/defense satellites.

Loading next visibility...
Identifier
45429, 2020-020F
Orbit
LEO
Country
Flag of UKUK
Related business
Manufacturer
One Web
Mission
Operational Commercial Communications
Bus & Motor
ARROW, Unknown motor
Mass
148 kg wet, ~140 kg dry
Launch date (UTC)
2020-03-21 (6 years ago)
Launch vehicle
SOYUZ-2-1B
Launch site
Tyuratam Missile And Space Complex (TTMTR)
Object type
Payload
Rocket body
Debris
Shape & HBR
Trap Box + 2 Pan, 6.7 m
Radar Cross Section
3.464 m², Medium (>0.1 m² and < 1m²)

Expand to show TLE details & history
Last TLE update: 9 hours ago

TLE from 9 hours ago
0 ONEWEB-0081
1 45429U 20020F   26035.08852594  .00000318  00000-0  86010-3 0  9995
2 45429  87.8821  47.5492 0001747  83.8767 276.2560 13.11417598285293
Epoch: 2026-02-04T02:07Z
TLE epoch observation values (Epoch: 2026-02-04T02:07:28.641Z)
Latitude
-0°
Longitude
-118.58026°
Altitude
1,220.425 km
Speed
7.244 km/s
True Right ascension
03h 10m 11s
True Declination
0° 00' 00"
Sunlit
Object was in daylight at epoch
Visualization orbit readout
Latitude
Unknown
Longitude
Unknown
Altitude
Unknown
Speed
Unknown
Apparent Right ascension
Unknown
Apparent Declination
Unknown
Sunlit
N/A
Visualization observer readout
Local Sidereal Time
12:40:12
Azimuth
Unknown
Elevation
Unknown
Doppler factor
Unknown
Orbital elements
Apogee altitude
1,216.125 km
Perigee altitude
1,213.472 km
Semi-major axis
7,592.935 km
Eccentricity
0.00017
Inclination
87.8821°
RAAN
47.5492°
Arg. of periapsis
83.8767°
True anomaly
276.2361°
Mean anomaly
276.256°
Eccentric anomaly
276.24605°
Mean motion
3.28041 °/min
Orbital period
109.74 mins
BSTAR
0.0008601
Loading maneuver chart data...
Computing Atmospheric mass density...
Loading historical data...
Loading historical data...
Loading historical data...
Loading historical data...
Loading historical data...
Loading historical data...
Loading historical data...

Documentation

Showing up to 5 results
|